EW9451 Weather Reports


Display with metric or nautical units.
time (UTC)temp
F
wind
direction
speed
MPH
gust
MPH
rain 1hr
in
rain 24hr
in
rain mn
in
humidity
%
barometer
mb
20260902040033 64 135 2.0 8.0 0.00 0.00 0.00 85 1011.8
20260902035532 64 169 1.0 8.0 0.00 0.00 0.00 85 1011.8
20260902035033 64 103 2.0 9.0 0.00 0.00 0.00 84 1011.5
20260902034534 64 88 2.0 9.0 0.00 0.00 0.00 84 1011.5
20260902034031 64 100 1.0 9.0 0.00 0.00 0.00 85 1011.7
20260902033532 64 76 2.0 10.0 0.00 0.00 0.00 85 1011.5
20260902033034 64 132 2.0 11.0 0.00 0.00 0.00 84 1011.7
20260902032533 64 133 2.0 6.0 0.00 0.00 0.00 85 1011.8
20260902032030 64 115 0.0 3.0 0.00 0.00 0.00 86 1011.7
20260902031537 63 291 0.0 3.0 0.00 0.00 0.00 86 1011.7
20260902031033 63 11 0.0 0.0 0.00 0.00 0.00 86 1011.6
20260902030530 64 11 0.0 0.0 0.00 0.00 0.00 86 1011.5
20260902030032 64 11 0.0 4.0 0.00 0.00 0.00 86 1011.4
20260902025531 64 154 0.0 4.0 0.00 0.00 0.00 86 1011.4
20260902025030 64 86 0.0 3.0 0.00 0.00 0.00 86 1011.3
20260902024529 64 182 0.0 1.0 0.00 0.00 0.00 86 1011.3
20260902024029 64 182 0.0 1.0 0.00 0.00 0.00 86 1011.3
20260902023532 64 155 0.0 1.0 0.00 0.00 0.00 86 1011.4
20260902023034 64 101 0.0 0.0 0.00 0.00 0.00 85 1011.4
20260902022529 64 101 0.0 2.0 0.00 0.00 0.00 86 1011.5
20260902022033 64 101 0.0 2.0 0.00 0.00 0.00 86 1011.5
20260902021529 65 118 0.0 3.0 0.00 0.00 0.00 85 1011.5
20260902021028 65 166 0.0 3.0 0.00 0.00 0.00 85 1011.5
20260902020529 65 107 1.0 3.0 0.00 0.00 0.00 84 1011.5
20260902020030 64 150 0.0 2.0 0.00 0.00 0.00 83 1011.6
20260902015528 64 130 0.0 2.0 0.00 0.00 0.00 84 1011.7
20260902015028 65 127 0.0 2.0 0.00 0.00 0.00 84 1011.7
20260902014531 65 190 0.0 0.0 0.00 0.00 0.00 84 1011.6
20260902014029 65 190 0.0 1.0 0.00 0.00 0.00 85 1011.5
20260902013526 65 190 0.0 1.0 0.00 0.00 0.00 84 1011.4
20260902013026 65 190 0.0 0.0 0.00 0.00 0.00 85 1011.5
20260902012530 65 190 0.0 0.0 0.00 0.00 0.00 85 1011.6
20260902012028 65 190 0.0 0.0 0.00 0.00 0.00 86 1011.6
20260902011526 66 190 0.0 0.0 0.00 0.00 0.00 86 1011.7
20260902011027 66 190 0.0 0.0 0.00 0.00 0.00 86 1011.6
20260902010525 66 190 0.0 1.0 0.00 0.00 0.00 86 1011.5
20260902010027 66 190 0.0 2.0 0.00 0.00 0.00 87 1011.5
20260902005527 66 190 0.0 2.0 0.00 0.00 0.00 86 1011.5
20260902005026 66 213 0.0 0.0 0.00 0.00 0.00 85 1011.4
20260902004529 66 213 0.0 1.0 0.00 0.00 0.00 85 1011.4
20260902004032 66 213 0.0 1.0 0.00 0.00 0.00 85 1011.4
20260902003526 67 210 0.0 1.0 0.00 0.00 0.00 85 1011.3
20260902003028 67 210 0.0 1.0 0.00 0.00 0.00 84 1011.3
20260902002525 67 210 0.0 1.0 0.00 0.00 0.00 84 1011.3
20260902002024 67 134 0.0 2.0 0.00 0.00 0.00 85 1011.3
20260902001524 68 134 0.0 2.0 0.00 0.00 0.00 85 1011.1
20260902001023 68 147 0.0 1.0 0.00 0.00 0.00 85 1011.0
20260902000525 68 147 0.0 0.0 0.00 0.00 0.00 84 1011.2
20260902000024 68 147 0.0 1.0 0.00 0.00 0.00 83 1011.2
20260901235525 68 147 0.0 2.0 0.00 0.00 0.00 82 1011.4
20260901235024 68 147 0.0 1.0 0.00 0.00 0.00 83 1011.5
20260901234523 68 147 0.0 1.0 0.00 0.00 0.00 82 1011.5
20260901234023 68 147 0.0 0.0 0.00 0.00 0.00 83 1011.3
20260901233528 69 147 0.0 0.0 0.00 0.00 0.00 83 1011.3
20260901233025 69 147 0.0 1.0 0.00 0.00 0.00 83 1011.2
20260901232524 69 147 0.0 1.0 0.00 0.00 0.00 82 1011.3
20260901232022 69 147 0.0 0.0 0.00 0.00 0.00 82 1011.3
20260901231522 69 147 0.0 0.0 0.00 0.00 0.00 82 1011.3
20260901231022 69 147 0.0 0.0 0.00 0.00 0.00 81 1011.3
20260901230522 70 147 0.0 1.0 0.00 0.00 0.00 81 1011.2
20260901230022 70 139 0.0 2.0 0.00 0.00 0.00 80 1011.1
20260901225521 70 277 0.0 2.0 0.00 0.00 0.00 80 1011.0
20260901225021 70 260 0.0 1.0 0.00 0.00 0.00 79 1011.0
20260901224526 70 155 0.0 1.0 0.00 0.00 0.00 78 1010.9
20260901224021 70 138 0.0 2.0 0.00 0.00 0.00 77 1010.9
20260901223521 71 253 0.0 2.0 0.00 0.00 0.00 79 1010.9
20260901223021 71 252 0.0 2.0 0.00 0.00 0.00 78 1010.7
20260901222520 71 200 0.0 5.0 0.00 0.00 0.00 77 1010.7
20260901222020 71 126 1.0 5.0 0.00 0.00 0.00 76 1010.7
20260901221553 71 289 0.0 3.0 0.00 0.00 0.00 77 1010.7
20260901221020 72 108 0.0 2.0 0.00 0.00 0.00 79 1010.7
20260901220519 72 181 0.0 2.0 0.00 0.00 0.00 78 1010.7
20260901220031 72 23 0.0 1.0 0.00 0.00 0.00 77 1010.6
20260901215520 72 23 0.0 3.0 0.00 0.00 0.00 78 1010.6
20260901215022 72 23 0.0 4.0 0.00 0.00 0.00 76 1010.5
20260901214520 72 144 1.0 4.0 0.00 0.00 0.00 76 1010.5
20260901214019 72 165 0.0 1.0 0.00 0.00 0.00 79 1010.5
20260901213519 72 214 0.0 2.0 0.00 0.00 0.00 80 1010.6
20260901213023 72 237 0.0 2.0 0.00 0.00 0.00 79 1010.6
20260901212518 72 151 0.0 2.0 0.00 0.00 0.00 79 1010.5
20260901212018 72 142 0.0 2.0 0.00 0.00 0.00 77 1010.6
20260901211520 72 137 0.0 2.0 0.00 0.00 0.00 78 1010.6
20260901211018 72 129 0.0 2.0 0.00 0.00 0.00 77 1010.6
20260901210517 72 175 0.0 1.0 0.00 0.00 0.00 76 1010.6
20260901210024 73 223 0.0 2.0 0.00 0.00 0.00 75 1010.7
20260901205517 73 226 0.0 3.0 0.00 0.00 0.00 73 1010.7
20260901205021 73 179 1.0 3.0 0.00 0.00 0.00 73 1010.5
20260901204520 74 178 0.0 0.0 0.00 0.00 0.00 73 1010.4
20260901204016 74 178 0.0 0.0 0.00 0.00 0.00 75 1010.3
20260901203516 74 178 0.0 1.0 0.00 0.00 0.00 74 1010.2
20260901203016 74 178 0.0 3.0 0.00 0.00 0.00 72 1010.2
20260901202516 75 167 0.0 3.0 0.00 0.00 0.00 73 1010.1
20260901202016 75 159 0.0 3.0 0.00 0.00 0.00 73 1010.1
20260901201514 75 169 0.0 3.0 0.00 0.00 0.00 72 1010.1
20260901201014 75 209 0.0 2.0 0.00 0.00 0.00 72 1010.1
20260901200514 75 128 0.0 1.0 0.00 0.00 0.00 73 1010.0
20260901200033 75 137 0.0 3.0 0.00 0.00 0.00 71 1010.0
20260901195513 75 130 0.0 3.0 0.00 0.00 0.00 73 1010.0
20260901195012 75 117 0.0 3.0 0.00 0.00 0.00 70 1010.2
20260901194510 75 175 0.0 1.0 0.00 0.00 0.00 70 1010.2
20260901194013 75 198 0.0 3.0 0.00 0.00 0.00 70 1010.3
20260901193509 76 275 1.0 3.0 0.00 0.00 0.00 70 1010.3
20260901193008 76 254 0.0 2.0 0.00 0.00 0.00 69 1010.3
20260901192508 77 198 0.0 1.0 0.00 0.00 0.00 66 1010.3
20260901192008 77 153 0.0 3.0 0.00 0.00 0.00 65 1010.3
20260901191517 78 153 0.0 4.0 0.00 0.00 0.00 65 1010.4
20260901191008 78 167 1.0 6.0 0.00 0.00 0.00 64 1010.4
20260901190507 78 126 0.0 6.0 0.00 0.00 0.00 65 1010.3
20260901190006 77 136 0.0 5.0 0.00 0.00 0.00 66 1010.4
20260901185506 77 150 0.0 5.0 0.00 0.00 0.00 67 1010.4
20260901185005 76 148 2.0 6.0 0.00 0.00 0.00 64 1010.4
20260901184507 76 113 0.0 4.0 0.00 0.00 0.00 66 1010.4
20260901184005 77 60 1.0 4.0 0.00 0.00 0.00 64 1010.4
20260901183505 77 217 0.0 7.0 0.00 0.00 0.00 61 1010.4
20260901183005 78 145 2.0 7.0 0.00 0.00 0.00 58 1010.5
20260901182504 78 95 0.0 5.0 0.00 0.00 0.00 66 1010.6
20260901182004 78 159 2.0 5.0 0.00 0.00 0.00 64 1010.7
20260901181504 78 263 0.0 6.0 0.00 0.00 0.00 60 1010.6
20260901181003 78 95 0.0 8.0 0.00 0.00 0.00 61 1010.5
20260901180503 78 114 1.0 8.0 0.00 0.00 0.00 58 1010.5
20260901180003 78 142 1.0 4.0 0.00 0.00 0.00 55 1010.5
20260901175502 78 117 1.0 4.0 0.00 0.00 0.00 56 1010.4
20260901175101 77 332 1.0 4.0 0.00 0.00 0.00 58 1010.4
20260901174600 77 84 0.0 6.0 0.00 0.00 0.00 57 1010.4
20260901174100 77 339 1.0 6.0 0.00 0.00 0.00 59 1010.4
20260901173600 77 283 1.0 5.0 0.00 0.00 0.00 60 1010.4
20260901173107 77 360 1.0 7.0 0.00 0.00 0.00 54 1010.4
20260901172559 76 167 3.0 7.0 0.00 0.00 0.00 57 1010.4
20260901172058 76 148 1.0 5.0 0.00 0.00 0.00 55 1010.5
20260901171603 76 283 2.0 5.0 0.00 0.00 0.00 61 1010.4
20260901171057 76 339 2.0 5.0 0.00 0.00 0.00 58 1010.5
20260901170557 76 317 0.0 6.0 0.00 0.00 0.00 56 1010.5
20260901170100 76 311 2.0 6.0 0.00 0.00 0.00 56 1010.6
20260901165555 76 303 3.0 7.0 0.00 0.00 0.00 57 1010.6
20260901165055 77 228 1.0 5.0 0.00 0.00 0.00 60 1010.6
20260901164613 77 150 0.0 7.0 0.00 0.00 0.00 56 1010.7
20260901164053 77 143 2.0 7.0 0.00 0.00 0.00 55 1010.7
20260901163552 77 160 2.0 7.0 0.00 0.00 0.00 58 1010.8
20260901163051 77 144 3.0 7.0 0.00 0.00 0.00 54 1010.8
20260901162549 76 174 3.0 8.0 0.00 0.00 0.00 55 1010.8
20260901162049 76 148 2.0 8.0 0.00 0.00 0.00 58 1010.8
20260901161551 76 216 1.0 8.0 0.00 0.00 0.00 61 1010.8
20260901161049 76 113 1.0 5.0 0.00 0.00 0.00 62 1010.8
20260901160545 75 267 1.0 5.0 0.00 0.00 0.00 62 1010.8
20260901160105 75 82 1.0 7.0 0.00 0.00 0.00 63 1010.7
20260901155544 74 142 2.0 7.0 0.00 0.00 0.00 60 1010.8
20260901155045 74 193 1.0 7.0 0.00 0.00 0.00 62 1010.8
20260901154544 74 121 1.0 6.0 0.00 0.00 0.00 63 1010.9
20260901154045 74 141 1.0 11.0 0.00 0.00 0.00 60 1011.0
20260901153545 74 117 2.0 11.0 0.00 0.00 0.00 55 1010.9
20260901153055 75 231 0.0 6.0 0.00 0.00 0.00 59 1010.8
20260901152542 74 103 1.0 4.0 0.00 0.00 0.00 63 1010.9
20260901152041 74 82 1.0 4.0 0.00 0.00 0.00 63 1010.8
20260901151543 74 90 1.0 7.0 0.00 0.00 0.00 57 1010.9
20260901151039 73 24 0.0 7.0 0.00 0.00 0.00 62 1011.0
20260901150538 73 148 1.0 6.0 0.00 0.00 0.00 60 1011.0
20260901150042 72 51 0.0 6.0 0.00 0.00 0.00 64 1011.0
20260901145536 72 157 2.0 6.0 0.00 0.00 0.00 57 1011.1
20260901145034 72 164 2.0 5.0 0.00 0.00 0.00 67 1011.0
20260901144540 72 78 0.0 7.0 0.00 0.00 0.00 70 1011.0
20260901144032 71 131 2.0 7.0 0.00 0.00 0.00 68 1010.8
20260901143531 71 113 1.0 7.0 0.00 0.00 0.00 73 1010.8
20260901143030 70 126 0.0 5.0 0.00 0.00 0.00 73 1010.7
20260901142528 70 132 2.0 6.0 0.00 0.00 0.00 74 1010.8
20260901142027 69 138 2.0 6.0 0.00 0.00 0.00 68 1010.9
20260901141526 68 104 0.0 3.0 0.00 0.00 0.00 74 1010.9
20260901141025 68 161 0.0 4.0 0.00 0.00 0.00 76 1010.9
20260901140523 66 161 0.0 5.0 0.00 0.00 0.00 75 1010.8
20260901140023 66 280 1.0 3.0 0.00 0.00 0.00 77 1010.8
20260901135520 65 265 1.0 3.0 0.00 0.00 0.00 77 1010.9
20260901135019 65 261 1.0 3.0 0.00 0.00 0.00 85 1010.8
20260901134518 64 235 0.0 1.0 0.00 0.00 0.00 85 1010.9
20260901134017 63 235 0.0 1.0 0.00 0.00 0.00 84 1010.9
20260901133514 63 235 0.0 1.0 0.00 0.00 0.00 85 1010.8
20260901133013 62 171 0.0 1.0 0.00 0.00 0.00 86 1010.9
20260901132512 62 171 0.0 0.0 0.00 0.00 0.00 87 1011.0
20260901132011 61 171 0.0 1.0 0.00 0.00 0.00 87 1011.1
20260901131512 61 171 0.0 1.0 0.00 0.00 0.00 88 1011.1
20260901131010 61 171 0.0 1.0 0.00 0.00 0.00 88 1011.0
20260901130513 61 171 0.0 1.0 0.00 0.00 0.00 89 1011.1
20260901130008 61 171 0.0 0.0 0.00 0.00 0.00 89 1011.1
20260901125508 60 171 0.0 1.0 0.00 0.00 0.00 89 1011.2
20260901125008 60 171 0.0 1.0 0.00 0.00 0.00 89 1011.3
20260901124507 60 171 0.0 1.0 0.00 0.00 0.00 89 1011.2
20260901124008 60 171 0.0 0.0 0.00 0.00 0.00 89 1011.1
20260901123507 60 171 0.0 2.0 0.00 0.00 0.00 89 1011.1
20260901123006 60 171 0.0 2.0 0.00 0.00 0.00 89 1011.3
20260901122503 60 171 0.0 0.0 0.00 0.00 0.00 89 1011.2
20260901122002 60 171 0.0 0.0 0.00 0.00 0.00 89 1011.4
20260901121507 59 171 0.0 0.0 0.00 0.00 0.00 89 1011.4
20260901121002 59 171 0.0 0.0 0.00 0.00 0.00 89 1011.4
20260901120502 59 171 0.0 0.0 0.00 0.00 0.00 88 1011.4
20260901120003 59 171 0.0 1.0 0.00 0.00 0.00 89 1011.2
20260901115502 59 171 0.0 1.0 0.00 0.00 0.00 89 1011.2
20260901115004 59 171 0.0 1.0 0.00 0.00 0.00 89 1011.2
20260901114601 59 171 0.0 1.0 0.00 0.00 0.00 89 1011.3
20260901114100 59 246 0.0 0.0 0.00 0.00 0.00 89 1011.3
20260901113559 59 246 0.0 0.0 0.00 0.00 0.00 89 1011.3
20260901113104 59 246 0.0 0.0 0.00 0.00 0.00 89 1011.2
20260901112559 59 246 0.0 1.0 0.00 0.00 0.00 89 1011.1
20260901112059 59 246 0.0 1.0 0.00 0.00 0.00 89 1011.2
20260901111559 59 246 0.0 1.0 0.00 0.00 0.00 89 1011.1
20260901111059 59 189 0.0 0.0 0.00 0.00 0.00 89 1011.0
20260901110558 59 189 0.0 0.0 0.00 0.00 0.00 89 1011.0
20260901110058 59 189 0.0 0.0 0.00 0.00 0.00 88 1011.0
20260901105600 59 189 0.0 0.0 0.00 0.00 0.00 88 1011.0
20260901105101 59 189 0.0 0.0 0.00 0.00 0.00 89 1011.0
20260901104602 59 189 0.0 2.0 0.00 0.00 0.00 87 1011.0
20260901104057 59 189 0.0 2.0 0.00 0.00 0.00 87 1010.9
20260901103557 59 204 0.0 2.0 0.00 0.00 0.00 88 1011.0
20260901103056 59 183 0.0 0.0 0.00 0.00 0.00 89 1011.0
20260901102556 59 183 0.0 0.0 0.00 0.00 0.00 89 1011.0
20260901102056 59 183 0.0 0.0 0.00 0.00 0.00 89 1010.9
20260901101605 59 183 0.0 0.0 0.00 0.00 0.00 89 1010.9
20260901101055 59 183 0.0 0.0 0.00 0.00 0.00 88 1010.9
20260901100555 59 183 0.0 1.0 0.00 0.00 0.00 88 1010.8
20260901100058 59 183 0.0 1.0 0.00 0.00 0.00 88 1010.9
20260901095555 59 224 0.0 2.0 0.00 0.00 0.00 88 1011.0
20260901095055 59 224 0.0 2.0 0.00 0.00 0.00 87 1011.1
20260901094556 59 224 0.0 0.0 0.00 0.00 0.00 89 1011.0
20260901094058 58 224 0.0 0.0 0.00 0.00 0.00 89 1011.1
20260901093553 58 224 0.0 0.0 0.00 0.00 0.00 89 1011.0
20260901093058 58 224 0.0 0.0 0.00 0.00 0.00 89 1011.0
20260901092553 58 224 0.0 0.0 0.00 0.00 0.00 89 1010.9
20260901092053 58 224 0.0 0.0 0.00 0.00 0.00 89 1011.0
20260901091557 58 224 0.0 0.0 0.00 0.00 0.00 89 1010.9
20260901091053 58 224 0.0 0.0 0.00 0.00 0.00 89 1010.9
20260901090552 58 224 0.0 0.0 0.00 0.00 0.00 88 1010.8
20260901090052 58 224 0.0 0.0 0.00 0.00 0.00 88 1010.8
20260901085552 58 224 0.0 0.0 0.00 0.01 0.00 88 1010.8
20260901085051 58 224 0.0 0.0 0.00 0.01 0.00 88 1010.9
20260901084552 58 224 0.0 0.0 0.00 0.01 0.00 88 1010.8
20260901084050 58 224 0.0 1.0 0.00 0.01 0.00 88 1010.8
20260901083550 58 224 0.0 1.0 0.00 0.01 0.00 87 1011.0
20260901083050 58 224 0.0 1.0 0.00 0.01 0.00 88 1011.0
20260901082549 58 224 0.0 0.0 0.00 0.01 0.00 89 1011.0
20260901082052 58 224 0.0 0.0 0.00 0.01 0.00 88 1010.9
20260901081555 58 224 0.0 0.0 0.00 0.01 0.00 88 1010.9
20260901081048 58 224 0.0 0.0 0.00 0.01 0.00 88 1011.0
20260901080548 58 224 0.0 0.0 0.00 0.01 0.00 88 1011.0
20260901080140 58 224 0.0 0.0 0.00 0.01 0.00 88 1011.1
20260901075650 58 224 0.0 0.0 0.00 0.01 0.00 88 1011.1
20260901075048 58 224 0.0 1.0 0.00 0.01 0.00 88 1011.1
20260901074548 58 224 0.0 2.0 0.00 0.01 0.00 88 1011.0
20260901074046 58 224 0.0 2.0 0.00 0.01 0.00 88 1011.0
20260901073545 58 224 0.0 2.0 0.00 0.01 0.00 88 1010.9
20260901073045 58 132 0.0 0.0 0.00 0.01 0.00 89 1011.0
20260901072545 58 132 0.0 0.0 0.00 0.01 0.00 88 1011.1
20260901072048 58 132 0.0 0.0 0.00 0.01 0.00 89 1011.0
20260901071545 58 132 0.0 0.0 0.00 0.01 0.00 88 1011.1
20260901071043 58 132 0.0 0.0 0.00 0.01 0.00 88 1011.2
20260901070544 57 132 0.0 0.0 0.00 0.01 0.00 87 1011.2
20260901070042 57 132 0.0 0.0 0.00 0.01 0.00 87 1011.3
20260901065542 57 132 0.0 2.0 0.00 0.01 0.00 88 1011.3
20260901065045 57 132 1.0 2.0 0.00 0.01 0.00 89 1011.3
20260901064541 57 125 1.0 2.0 0.00 0.01 0.00 88 1011.4
20260901064041 57 247 0.0 2.0 0.00 0.01 0.00 88 1011.6
20260901063540 56 247 0.0 2.0 0.00 0.01 0.00 88 1011.6
20260901063054 56 175 0.0 2.0 0.00 0.01 0.00 88 1011.5
20260901062642 56 175 0.0 2.0 0.00 0.01 0.00 88 1011.5
20260901062039 56 300 0.0 2.0 0.00 0.01 0.00 88 1011.6
20260901061556 56 5 0.0 1.0 0.00 0.01 0.00 89 1011.5
20260901061038 56 5 0.0 1.0 0.00 0.01 0.00 87 1011.7
20260901060540 56 5 0.0 0.0 0.00 0.01 0.00 87 1011.7
20260901060038 57 5 0.0 1.0 0.00 0.01 0.00 88 1011.8
20260901055536 57 5 0.0 2.0 0.00 0.01 0.00 88 1011.9
20260901055037 57 50 0.0 2.0 0.00 0.01 0.00 86 1011.9
20260901054541 57 326 0.0 2.0 0.00 0.01 0.00 86 1011.8
20260901054035 57 15 0.0 2.0 0.00 0.01 0.00 86 1011.7
20260901053533 57 15 0.0 2.0 0.00 0.01 0.00 85 1011.8
20260901053036 58 15 0.0 2.0 0.00 0.01 0.00 85 1011.8
20260901052530 58 31 0.0 2.0 0.00 0.01 0.00 85 1011.8
20260901052030 58 355 0.0 2.0 0.00 0.01 0.00 84 1011.9
20260901051528 58 77 0.0 2.0 0.00 0.01 0.00 84 1011.8
20260901051031 58 77 0.0 2.0 0.00 0.01 0.00 84 1011.9
20260901050528 59 111 0.0 2.0 0.00 0.01 0.00 83 1011.9
20260901050027 59 47 0.0 1.0 0.00 0.01 0.00 82 1011.9
20260901045530 59 47 0.0 0.0 0.00 0.01 0.00 82 1011.9
20260901045026 59 47 0.0 0.0 0.00 0.01 0.00 81 1012.0
20260901044527 59 47 0.0 1.0 0.00 0.01 0.00 81 1011.9
20260901044025 59 47 0.0 1.0 0.00 0.01 0.00 81 1012.0
20260901043524 59 47 0.0 1.0 0.00 0.01 0.00 79 1012.1
20260901043031 59 47 0.0 1.0 0.00 0.01 0.00 78 1012.2
20260901042524 59 47 0.0 0.0 0.00 0.01 0.00 78 1012.2
20260901042022 59 47 0.0 1.0 0.00 0.01 0.00 80 1012.2
20260901041521 59 46 0.0 1.0 0.00 0.01 0.00 79 1012.1
20260901041025 59 47 0.0 1.0 0.00 0.01 0.00 81 1012.0
20260901040519 59 47 0.0 2.0 0.00 0.01 0.00 81 1012.1